Location: Be?chatów
(51.3665°N, 19.3745°E)
Time: 04:19:00
(UTC+00:00)

Cosmos 2181 Rocket - Visible Passes

Search period start: 06 June 2026 00:00
Search period end: 16 June 2026 00:00
Orbit: 952 x 1013 km, 82.9° (Epoch: 5 June)

Date Brightness Start Highest point End Pass type
(mag) Time Alt. Az. Time Alt. Az. Time Alt. Az.
6 Jun 4.3 01:16:01 10° SSW 01:22:05 55° WNW 01:28:19 10° N visible
6 Jun 4.6 23:58:40 13° SSE 00:04:04 53° E 00:10:13 10° NNE visible
7 Jun 6.0 22:42:55 10° ESE 22:46:54 18° ENE 22:50:55 10° NE visible
8 Jun 4.1 00:26:07 15° S 00:31:29 88° E 00:37:53 10° N visible
8 Jun 5.4 23:08:44 11° SE 23:13:54 30° E 23:19:18 10° NNE visible
9 Jun 4.3 00:53:33 13° SSW 00:59:06 57° WNW 01:05:23 10° N visible
9 Jun 4.6 23:36:10 15° SSE 23:41:07 51° E 23:47:14 10° NNE visible
10 Jun 5.0 01:21:15 10° SW 01:26:55 35° WNW 01:32:42 10° N visible
10 Jun 6.0 22:20:05 10° ESE 22:23:58 17° ENE 22:27:53 10° NE visible
11 Jun 4.1 00:03:34 17° S 00:08:31 85° E 00:14:56 10° N visible
11 Jun 5.4 22:46:10 12° SE 22:50:58 29° E 22:56:20 10° NNE visible
12 Jun 4.3 00:30:58 15° SSW 00:36:07 59° WNW 00:42:26 10° N visible
12 Jun 4.6 23:13:33 17° SSE 23:18:10 49° E 23:24:17 10° NNE visible
13 Jun 5.0 00:58:22 11° SW 01:03:55 36° WNW 01:09:47 10° N visible
13 Jun 6.0 21:57:16 10° ESE 22:01:02 17° ENE 22:04:51 10° NE visible
13 Jun 4.1 23:40:55 20° S 23:45:33 82° E 23:51:59 10° NNE visible
14 Jun 5.6 01:27:05 10° WSW 01:31:56 23° WNW 01:36:52 10° N visible
14 Jun 5.4 22:23:29 13° SE 22:28:02 28° E 22:33:20 10° NNE visible
15 Jun 4.3 00:08:17 17° SSW 00:13:08 61° WNW 00:19:30 10° N visible
15 Jun 4.6 22:50:50 18° SSE 22:55:13 48° E 23:01:19 10° NNE visible
